DateTimeUTC,F1_A11,F1_S11,BsB_S11,BsG_S11,BsR_S11,BbsB_S11,BbsG_S11,BbsR_S11,BaB_A11,BaG_A11,BaR_A11,Tu_S11,T_S11,Uu_S11,U_S11,P_S11,T1_A11
2021-05-27T19:00:00Z,00000200,20000000,,,,,,,-000.01,-000.23,-000.09,20.4,26.6,04.8,03.3,0679.7,31.1
2021-05-27T19:01:00Z,00000200,20000000,,,,,,,0000.29,0000.05,0000.21,20.4,26.6,04.8,03.3,0679.7,31.2
2021-05-27T19:02:00Z,00000200,20000000,,,,,,,-000.35,0000.21,-000.03,20.3,26.6,04.8,03.3,0679.7,31.2
2021-05-27T19:03:00Z,00000200,60000000,,,,,,,0001.02,0000.74,0000.53,20.3,26.7,04.9,03.3,0679.7,31.2
2021-05-27T19:04:00Z,00000200,40000000,0002.94,0002.07,0001.44,0000.43,0000.32,0000.50,0000.76,0000.47,0000.68,20.4,26.5,04.9,03.4,0680.6,31.2
2021-05-27T19:05:00Z,00000200,00000000,0002.62,0002.23,0001.47,0000.81,0000.34,0000.43,0000.90,0000.78,0000.20,20.4,26.5,05.0,03.5,0680.7,31.2
2021-05-27T19:06:00Z,00000200,00000000,0002.82,0002.12,0001.49,0000.03,0000.29,0000.56,0000.82,0001.16,0000.93,20.4,26.4,05.1,03.5,0680.8,31.2
2021-05-27T19:07:00Z,00000200,00000000,0003.13,0001.87,0001.68,0000.52,0000.41,0000.55,0001.09,0000.57,0000.64,20.4,26.4,05.1,03.6,0680.8,31.2
2021-05-27T19:08:00Z,00000200,00000000,0002.85,0001.98,0001.50,-000.01,0000.38,0000.30,0000.60,0001.16,0000.95,20.4,26.4,05.3,03.7,0680.8,31.2
2021-05-27T19:09:00Z,00000200,00000000,0002.96,0001.76,0001.76,-000.16,0000.41,0000.38,0001.47,0000.90,0000.44,20.4,26.4,05.1,03.6,0680.8,31.1
2021-05-27T19:10:00Z,00000200,00000000,0002.59,0002.12,0001.40,0000.46,0000.39,0000.44,0000.75,0000.76,0000.87,20.4,26.4,05.2,03.7,0680.7,31.1
2021-05-27T19:11:00Z,00000200,00000000,0002.78,0002.06,0001.66,0000.58,0000.39,0000.39,0000.69,0000.53,0000.17,20.4,26.4,05.2,03.6,0680.7,31.1
2021-05-27T19:12:00Z,00000200,00000000,0002.63,0001.85,0001.52,0000.50,0000.52,0000.34,0000.81,0000.69,0000.65,20.4,26.4,05.2,03.6,0680.6,31.1
2021-05-27T19:13:00Z,00000200,00000000,0003.56,0002.05,0001.56,-000.07,0000.42,0000.57,0001.23,0001.09,0000.86,20.4,26.4,05.2,03.6,0680.6,31.1
2021-05-27T19:14:00Z,00000200,00000000,0002.91,0002.03,0001.03,-000.17,0000.49,0000.07,0000.39,0000.53,0000.73,20.4,26.4,05.3,03.7,0680.5,31.2
2021-05-27T19:15:00Z,00000200,00000000,0002.62,0001.68,0001.35,0000.06,0000.34,0000.14,0001.06,0001.29,0000.56,20.4,26.4,05.2,03.6,0680.5,31.2
2021-05-27T19:16:00Z,00000200,00000000,0003.13,0002.44,0001.57,0000.73,0000.24,0000.35,0000.95,0000.51,0000.32,20.4,26.4,05.1,03.5,0680.6,31.1
2021-05-27T19:17:00Z,00000200,00000000,0002.50,0002.01,0001.61,0000.21,0000.52,0000.33,0000.70,0000.57,0000.54,20.4,26.4,05.0,03.5,0680.6,31.2
2021-05-27T19:18:00Z,00000200,00000000,0003.12,0002.19,0001.62,0000.26,0000.53,0000.34,0001.08,0000.72,0000.89,20.4,26.4,05.1,03.5,0680.6,31.2
2021-05-27T19:19:00Z,00000200,00000000,0002.54,0002.00,0001.49,0000.25,0000.21,0000.15,0000.78,0000.85,0000.36,20.4,26.4,05.1,03.5,0680.6,31.2
2021-05-27T19:20:00Z,00000200,00000000,0003.61,0001.78,0001.04,0000.85,0000.29,0000.19,0000.46,0000.84,0000.56,20.4,26.4,05.1,03.5,0680.5,31.1
2021-05-27T19:21:00Z,00000200,00000000,0003.08,0002.31,0001.59,0000.37,0000.31,0000.36,0000.50,0000.59,0000.26,20.4,26.4,04.9,03.4,0680.5,31.2
2021-05-27T19:22:00Z,00000200,00000000,0002.57,0001.74,0001.56,0000.89,0000.55,0000.47,0000.50,0000.22,0000.38,20.4,26.4,05.0,03.5,0680.5,31.2
2021-05-27T19:23:00Z,00000200,00000000,0002.95,0001.86,0001.15,0000.27,0000.25,0000.21,0001.23,0001.00,0001.18,20.4,26.4,04.8,03.4,0680.4,31.2
2021-05-27T19:24:00Z,00000200,00000000,0002.71,0002.12,0001.45,-000.08,0000.31,0000.15,0000.95,0000.82,0000.05,20.4,26.4,04.9,03.4,0680.4,31.2
2021-05-27T19:25:00Z,00000200,00000000,0003.67,0001.90,0001.40,0000.68,0000.47,0000.39,0000.62,0000.73,0000.55,20.4,26.4,04.8,03.4,0680.3,31.2
2021-05-27T19:26:00Z,00000200,00000000,0002.89,0001.81,0001.20,0000.74,0000.33,0000.56,0000.83,0000.68,0000.75,20.4,26.4,04.8,03.4,0680.3,31.2
2021-05-27T19:27:00Z,00000200,00000000,0003.15,0002.22,0001.66,0000.62,0000.56,0000.39,0001.08,0001.14,0000.66,20.4,26.4,04.8,03.4,0680.2,31.2
2021-05-27T19:28:00Z,00000200,00000000,0002.97,0002.28,0001.56,0000.60,0000.37,0000.40,0000.81,0000.52,0000.43,20.4,26.4,04.9,03.4,0680.1,31.2
2021-05-27T19:29:00Z,00000200,00000000,0003.39,0001.87,0001.14,0000.25,0000.12,0000.17,0000.65,0000.58,0000.43,20.4,26.4,04.8,03.3,0680.1,31.2
2021-05-27T19:30:00Z,00000200,00000000,0003.06,0001.98,0001.48,0000.37,0000.31,0000.08,0000.72,0000.36,0000.72,20.3,26.4,04.8,03.3,0680.0,31.2
2021-05-27T19:31:00Z,00000200,00000000,0002.87,0001.86,0001.32,0000.10,0000.44,0000.31,0001.17,0001.15,0000.83,20.4,26.4,04.7,03.3,0680.0,31.1
2021-05-27T19:32:00Z,00000200,00000000,0002.75,0001.92,0001.36,0000.32,0000.17,0000.26,0001.07,0001.08,0000.42,20.3,26.4,04.8,03.3,0680.0,31.2
2021-05-27T19:33:00Z,00000200,00000000,0002.64,0002.04,0001.48,0000.63,0000.53,0000.42,0000.50,0000.83,0000.57,20.3,26.4,04.9,03.4,0680.0,31.1
2021-05-27T19:34:00Z,00000200,00000000,0002.47,0001.97,0001.52,0000.20,0000.52,0000.41,0001.01,0000.73,0000.89,20.3,26.4,04.8,03.4,0680.0,31.2
2021-05-27T19:35:00Z,00000200,00000000,0003.37,0002.01,0001.27,0001.03,0000.56,0000.04,0001.11,0000.37,0000.60,20.3,26.3,04.8,03.3,0680.0,31.2
2021-05-27T19:36:00Z,00000200,00000000,0002.61,0001.66,0001.32,0000.40,0000.35,0000.13,0000.79,0001.57,0000.53,20.3,26.3,04.9,03.4,0680.1,31.2
2021-05-27T19:37:00Z,00000200,00000000,0002.51,0002.16,0001.82,0000.45,0000.57,0000.26,0001.04,0000.75,0001.22,20.3,26.3,04.9,03.4,0680.1,31.2
2021-05-27T19:38:00Z,00000200,00000000,0003.02,0001.69,0001.37,0000.25,0000.63,0000.34,0000.51,0000.35,0000.15,20.3,26.4,05.0,03.5,0680.1,31.2
2021-05-27T19:39:00Z,00000200,00000000,0002.81,0002.10,0001.84,0000.12,0000.56,0000.40,0000.84,0000.45,0000.70,20.3,26.3,04.8,03.3,0680.1,31.2
2021-05-27T19:40:00Z,00000200,00000000,0002.97,0002.05,0001.64,0000.58,0000.81,0000.29,0000.72,0001.00,0000.04,20.3,26.3,04.7,03.3,0680.2,31.2
2021-05-27T19:41:00Z,00000200,00000000,0002.92,0002.05,0001.63,0000.67,0000.62,0000.18,0001.29,0001.04,0001.00,20.3,26.3,04.7,03.2,0680.2,31.2
2021-05-27T19:42:00Z,00000200,00000000,0002.82,0002.01,0001.50,0000.71,0000.35,0000.39,0000.52,0000.67,0000.60,20.3,26.4,04.7,03.3,0680.2,31.1
2021-05-27T19:43:00Z,00000200,00000000,0003.01,0002.13,0001.07,0000.68,0000.36,0000.29,0000.57,0000.72,0000.20,20.3,26.3,04.7,03.2,0680.2,31.2
2021-05-27T19:44:00Z,00000200,00000000,0002.86,0001.93,0001.65,0000.70,0000.46,0000.05,0001.04,0000.59,0000.49,20.3,26.3,04.8,03.3,0680.2,31.2
2021-05-27T19:45:00Z,00000200,00000000,0003.41,0002.08,0001.47,0000.61,0000.45,0000.50,0001.12,0000.87,0001.08,20.3,26.3,04.7,03.3,0680.2,31.2
2021-05-27T19:46:00Z,00000200,00000000,0002.80,0002.04,0001.58,-000.05,0000.29,0000.38,0000.92,0001.16,0000.72,20.3,26.3,04.8,03.4,0680.2,31.1
2021-05-27T19:47:00Z,00000200,00000000,0002.61,0001.92,0001.39,0000.33,0000.41,-000.03,0000.94,0000.78,0000.75,20.3,26.3,04.8,03.3,0680.2,31.2
2021-05-27T19:48:00Z,00000200,00000000,0002.86,0002.16,0001.95,0000.43,0000.66,0000.36,0001.12,0000.93,0000.69,20.3,26.3,04.9,03.4,0680.2,31.1
2021-05-27T19:49:00Z,00000200,00000000,0003.20,0001.94,0001.47,0000.62,0000.38,0000.12,0000.93,0000.94,0000.71,20.3,26.3,04.9,03.4,0680.2,31.2
2021-05-27T19:50:00Z,00000200,00000000,0002.81,0001.87,0001.63,0000.26,0000.72,0000.44,0001.16,0001.00,0000.60,20.3,26.3,04.9,03.4,0680.2,31.1
2021-05-27T19:51:00Z,00000200,00000000,0002.56,0002.50,0001.52,0000.19,0000.43,0000.02,0000.51,0000.39,0000.79,20.3,26.3,04.9,03.4,0680.2,31.2
2021-05-27T19:52:00Z,00000200,00000000,0003.35,0001.93,0001.51,0000.41,0000.54,0000.37,0000.91,0001.50,0000.97,20.3,26.3,05.0,03.5,0680.2,31.1
2021-05-27T19:53:00Z,00000200,00000000,0003.10,0001.82,0001.32,0000.85,0000.38,0000.22,0000.97,0000.16,0000.45,20.3,26.3,05.0,03.4,0680.2,31.1
2021-05-27T19:54:00Z,00000200,00000000,0003.14,0001.92,0001.51,0000.46,0000.54,0000.33,0000.86,0001.16,0000.60,20.3,26.3,05.0,03.5,0680.2,31.2
2021-05-27T19:55:00Z,00000200,00000000,0002.34,0001.91,0001.39,0000.58,0000.12,0000.31,0000.93,0000.77,0000.72,20.3,26.3,05.0,03.5,0680.1,31.1
2021-05-27T19:56:00Z,00000200,00000000,0002.24,0002.13,0001.75,0000.38,0000.30,0000.40,0000.87,0001.28,0000.74,20.3,26.3,05.2,03.6,0680.1,31.2
2021-05-27T19:57:00Z,00000200,40000000,,,,,,,0000.35,-000.13,0000.33,20.3,26.4,05.1,03.5,0680.1,31.2
2021-05-27T19:58:00Z,00000200,60000000,,,,,,,0000.05,0000.21,-000.24,20.0,26.4,05.1,03.4,0679.1,31.2
2021-05-27T19:59:00Z,00000200,20000000,,,,,,,0000.38,-000.16,0000.07,20.0,26.5,05.2,03.5,0679.1,31.2
